"Pseudo-MPEC" for A10dEHr

Created 2019 May 23 18:07:02 UT using Find_Orb

Click here for an explanation of pseudo-MPECs

 
 Astrometry: 
     A10dEHr  C2019 05 14.54253520 23 52.92 -31 36 37.3    ~5EL7 18.73oVNEOCPT05
     A10dEHr  C2019 05 14.54627720 23 52.39 -31 36 36.4    ~5EL7 18.67oVNEOCPT05
     A10dEHr  C2019 05 14.55140420 23 51.70 -31 36 34.2    ~5EL7 18.79oVNEOCPT05
     A10dEHr  C2019 05 14.56152620 23 50.39 -31 36 31.9    ~5EL7 17.34oVNEOCPT05
     A10dEHr |C2019 05 15*cq+92O[U%vC)Cx6s/hUh6OxU7t2B$O9cQ,P[A+`q#)G[j@kYu3I807
     A10dEHr |C2019 05 15$2Xo,j7d@*(KjX,e=F\@O\AeMa0`6Ccn/AdoAstrometry1UZ+`1807
     A10dEHr |C2019 05 15Ptqkx1G5S2nB_@?-O`qEK'YWguBqI9g:1@%YU2Eq'BM@lMk,yjWI807
     A10dEHr |C2019 05 15hmx0!J,o5uH[-n,hj3.,Y\Qe5BB;E1.xAyEfo5lD]'++3tu\[Yrg807
     A10dEHr  C2019 05 15.44277120 21 53.40 -31 31 43.8    ~5FBM 18.5 GVNEOCPH01
     A10dEHr  C2019 05 15.44601620 21 52.95 -31 31 42.6    ~5FBM 18.5 GVNEOCPH01
     A10dEHr  C2019 05 15.45510520 21 51.71 -31 31 39.5    ~5FBM 18.4 GVNEOCPH01
     A10dEHr  C2019 05 15.46004720 21 51.04 -31 31 38.0    ~5FBM 18.6 GVNEOCPH01
     A10dEHr 1C2019 05 15x-/AH.,0`'k`'W/J-SQ8_?f4s#J-O7+]_.2Jon;/OLrkv%x(q]G^Q62
     A10dEHr 1C2019 05 15L@;vMj33M39gukDt,-#X%n/^l7V*8nV2/R:y?M',fH[F9tygw1mEQ62
     A10dEHr KC2019 05 15@+l1;vIc,\r8vLW#-ciUDjH$dGl29a-xS:)hW5$*MTV*W=GLFjt$Q62
     A10dEHr KC2019 05 15/uJKac2n@3VIUg_Yqf3'KDDrDJr5xQDM!I5e5)'U7YKXr*P^qW/;Q62
     A10dEHr KC2019 05 15V\:.O%_MRavg1KaAgxmVrw`0IttVXdaYJ42edSkP$RqF*K9:wj!-Q62
     A10dEHr 4C2019 05 169?'2m7jGV,'ZtmE_F65%B`KL1dfbTgoH`QZ-h$/x06X+]#D]m3b5W88
     A10dEHr KC2019 05 16s3a^w(F,IoTdhKClZAWJ-W`kKs-:FAV^r^*$aS2KTwwG1$\r@CPZI47
     A10dEHr 4C2019 05 16h!-v;-qqki/OHq(Zv6[M3(_,`A$ZdTn-/!)%.PSC`(k1d-!;[hCtW88
     A10dEHr KC2019 05 16N];S=YaefKfIPN#[G@c8QM_(YtqVnEmcRdvnO=?ofIwjOX7JA)!II47
     A10dEHr KC2019 05 16:Q54F\9E.$B-_u#%DoN3`xTDSWFnc[\?'?AuPy:,`S(cY(TQC,_gI47
     A10dEHr  C2019 05 16.53117020 19 23.54 -31 25 34.6    ~5GIb 18.32oVNEOCPT08
     A10dEHr  C2019 05 16.53393420 19 23.42 -31 25 33.0    ~5GIb 18.06oVNEOCPT08
     A10dEHr  C2019 05 16.54041420 19 22.48 -31 25 31.8    ~5GIb 18.17oVNEOCPT08
     A10dEHr  C2019 05 16.55161920 19 20.91 -31 25 26.5    ~5GIb 17.92oVNEOCPT08
     A10dEHr  C2019 05 16`q3TZHjy*/u%(%$B1dPm(/tkN+h5DUu;B)Oks)u]Xe]XaHv7XjXlN55
     A10dEHr  C2019 05 16r=Z-bj(W21-W+jRhH,-+n-;,#M`m`,f#AM?1VwwA^UNanvnU[2JBN55
     A10dEHr  C2019 05 16'0FUpm;#3rDa8/qi,8Ma?!IgQqCf]G.?1Tt'Hi^[;\B-kmvx,I9%N55
     A10dEHr  S2019 05 18$bFU3Cuqj*6U^d]`-uv2r0#f,UL0oQ41wDEA?peI`Ab$X1-xg?qwC53
     A10dEHr  s2019 05 18w]*R/:!:(37Lredacted;22l\RoBM1_41l2Rf)Pc@4;)N=C0*5]GC53
     A10dEHr  S2019 05 18)xSRtdtex_207xnAahUVr)s;n#PQsR4K+fyfPM+(2=9$oaEVO!3GC53
     A10dEHr  s2019 05 18^`cRm]7yq=+^KhjVqVNd4CKZ5gM'?E2=7f5TqMJv;nR2Kv_$!sXVC53
     A10dEHr  S2019 05 18bEX6LQL=Yc)HqTuAPk6]#;=TTA/(yejxwclickKNvQl0:uX1P.,yC53
     A10dEHr  s2019 05 18B=7[0l@N_]E%eAVW+J-d[]rB=qd[MV8herer2PtqnO.m.t5eQti8C53
     A10dEHr  S2019 05 18^%u0Gm'1(/AxGCpYsE*hN95\3$!ykW]p,n=SO([8J3_G^rA)#c1pC53
     A10dEHr  s2019 05 18xm)#o!V:290?a'Lkcb)3uC5Yo0Ls'BKu%(D'^^mRH2mO9^l!BZv?C53
     A10dEHr  C2019 05 18o04%;R.]W]c:'Dx?7*g$xpq6br2BHQk2@p95H!rZ^5t?3L8%W%]/N55
     A10dEHr  C2019 05 18OTEkL2hN=Ya7*TL,Uyfm4`f3$'D]dSfrRWDyr\Y3sforcgovy6C3N55
     A10dEHr  C2019 05 18v/icgpaJ4n6,!H*?GW!ZjOCXOmTN)x;Ya+wOU^Sj-jP.l[M98)t(N55
     A10dEHr KC2019 05 192q:adoiGG^'.CX]yp7explanationC#[s1'.9tFvH).@CI^ll,9PN55
     A10dEHr KC2019 05 19gHty_MoPpseC^lRQgRM5[5/Y8n%*T?[uA/NZ\C1RpPuUC'`dZ4SoN55
     A10dEHr KC2019 05 19#=N1T?M[nnDB(?926DbEAi++Is8?wUGm@Um9\)-*M)3TIf9J(^krN55
     A10dEHr  C2019 05 21iPAci::D-?KX.)@8W#%e,+?V4#H,Gx'dAv$@l1_=1qKo7;CkA)PaN55
     A10dEHr  C2019 05 21`dbJ?:,)\(-t;k*2qSJ5Y?2$`T!V?tC9XOCnW*p+#ewaxn:]MAoQN55

Station data:
(807) Cerro Tololo Observatory, La Serena  (S30.169136 W70.805900)  Chile.
(C53) NEOSSat.
(H01) Magdalena Ridge Observatory, Socorro  (N33.984833 W107.189333)  US/New
   Mexico.  Observers W. H. Ryan, E. V. Ryan. Measurer W. H. Ryan. 2.4-m
   f/8.9 reflector + CCD.
(I47) Pierre Auger Observatory, Malargüe  (S35.495442 W69.449700)  Argentina.
(N55) Corona Borealis Observatory, Ngari  (N32.326059 E80.026230)  China.
(Q62) iTelescope Observatory, Siding Spring  (S31.273289 E149.064420)
   Australia/NSW. 0.50-m f/6.8 astrograph + CCD + focal reducer, 0.70-m f/6.6
   astrograph + CCD.
(T05) ATLAS-HKO, Haleakala  (N20.707573 W156.257010)  US/Hawaii.  Observers
   L. Denneau, A. Heinze, H. Weiland, J. Tonry, H. Flewelling, A.
   Fitzsimmons, D. Young, B. Stalder. Measurers L. Denneau, A. Heinze, J.
   Tonry. 0.5-m f/2.0 Schmidt + CCD.
(T08) ATLAS-MLO, Mauna Loa  (N19.535772 W155.576400)  US/Hawaii.  Observers
   L. Denneau, A. Heinze, H. Weiland, J. Tonry, H. Flewelling, A.
   Fitzsimmons, D. Young, B. Stalder. Measurers L. Denneau, A. Heinze, J.
   Tonry. 0.5-m f/2.0 Schmidt + CCD.
(W88) Slooh.com Chile Observatory, La Dehesa  (S33.269128 W70.534300)  Chile.
   0.35-m f/11 Schmidt-Cassegrain + CCD.

Orbital elements:  A10dEHr
   Perihelion 2019 Aug 1.026391 +/- 0.403 TT =  0:38:00 (JD 2458696.526391)
Epoch 2019 May 21.0 TT = JDT 2458624.5                        AutoNEOCP
M 359.76033239 +/- 0.8              (J2000 ecliptic)
n   0.00332749 +/- 0.00829          Peri.   15.96586 +/- 0.34
a  44.4349058 +/- 106               Node   270.54200 +/- 0.010
e   0.9465190 +/- 0.095             Incl.  131.09024 +/- 0.56
P 296.20                   H 14.1   G  0.15   U  9.5  
q 2.37641919 +/- 0.00821    Q 86.4933924 +/- 63.8
From 41 observations 2019 May 14-21; mean residual 1".09
Residuals in arcseconds: 
190514 T05  .28+  .10-    190515 Q62  .01-  .03-    190516 N55  .02+  1.3+    
190514 T05  .17-  .38-    190515 Q62  .53-  .01-    190518 C53  2.9+  .14+    
190514 T05  .33-  .21+    190515 Q62  .29-  .15+    190518 C53  1.1+  .22-    
190514 T05  .05+  .67-    190516 W88  .44+  .14+    190518 C53  .29-  .11+    
190515 807  .14-  .18+    190516 I47  .46+  .31+    190518 C53  .59+  .34+    
190515 807  .17-  .03+    190516 W88  .18-  .82+    190518 N55  2.4+  .95+    
190515 807  .26-  .03-    190516 I47  .60+  .29+    190518 N55  1.0-  1.1-    
190515 807  .12-  .14-    190516 I47  .29-  .41+    190518 N55  6.0-  3.0-    
190515 H01  .15+  .01-    190516 T08  2.7-  1.3-    190519 N55  .50-  .76-    
190515 H01  .06+  .13+    190516 T08  .78+  .66-    190519 N55  .11+  .63+    
190515 H01  .09+  .24+    190516 T08  .53+  1.7-    190519 N55  1.2-  1.3+    
190515 H01  .17+  .11+    190516 T08  .83+  .17-    190521 N55  .72-  1.6-    
190515 Q62  .00   .34+    190516 N55  .84+  .27+    190521 N55  1.2+  1.7+    
190515 Q62  .10+  .47+    190516 N55  .14-  .37+    

Ephemerides (geocentric):
Date (UTC) HH   RA              Dec         delta   r     elong  mag " sig PA
---- -- -- --  -------------   -----------  ------ ------ -----  --- ---- ---
2019 05 23 18  20 00 13.443   -30 36 14.68  1.7633 2.4917 125.5 18.2 1.14   2
2019 05 23 19  20 00 05.976   -30 35 54.48  1.7625 2.4915 125.6 18.2 1.16   2
2019 05 23 20  19 59 58.499   -30 35 34.23  1.7616 2.4914 125.6 18.2 1.18   2
2019 05 23 21  19 59 51.013   -30 35 13.94  1.7608 2.4912 125.7 18.2 1.20   1
2019 05 23 22  19 59 43.516   -30 34 53.61  1.7599 2.4911 125.8 18.2 1.22   1
2019 05 23 23  19 59 36.010   -30 34 33.24  1.7591 2.4910 125.8 18.2 1.24   1
2019 05 24 00  19 59 28.494   -30 34 12.82  1.7582 2.4908 125.9 18.2 1.26   1
2019 05 24 01  19 59 20.968   -30 33 52.36  1.7574 2.4907 126.0 18.2 1.29   0
2019 05 24 02  19 59 13.433   -30 33 31.85  1.7565 2.4906 126.0 18.2 1.31   0
2019 05 24 03  19 59 05.887   -30 33 11.30  1.7557 2.4904 126.1 18.2 1.33   0
2019 05 24 04  19 58 58.332   -30 32 50.71  1.7548 2.4903 126.2 18.2 1.35   0
2019 05 24 05  19 58 50.767   -30 32 30.08  1.7540 2.4902 126.2 18.2 1.37 179
2019 05 24 06  19 58 43.192   -30 32 09.40  1.7531 2.4900 126.3 18.2 1.40 179
2019 05 24 07  19 58 35.607   -30 31 48.67  1.7523 2.4899 126.4 18.2 1.42 179
2019 05 24 08  19 58 28.012   -30 31 27.91  1.7514 2.4898 126.4 18.2 1.44 179
2019 05 24 09  19 58 20.407   -30 31 07.09  1.7506 2.4896 126.5 18.2 1.47 178
2019 05 24 10  19 58 12.793   -30 30 46.24  1.7497 2.4895 126.6 18.2 1.49 178
2019 05 24 11  19 58 05.168   -30 30 25.34  1.7489 2.4894 126.6 18.2 1.51 178
2019 05 24 12  19 57 57.534   -30 30 04.39  1.7480 2.4892 126.7 18.2 1.54 178
2019 05 24 13  19 57 49.890   -30 29 43.40  1.7472 2.4891 126.8 18.2 1.56 177
2019 05 24 14  19 57 42.236   -30 29 22.36  1.7464 2.4890 126.8 18.2 1.58 177
2019 05 24 15  19 57 34.572   -30 29 01.28  1.7455 2.4888 126.9 18.2 1.61 177
2019 05 24 16  19 57 26.899   -30 28 40.16  1.7447 2.4887 127.0 18.2 1.63 177
2019 05 24 17  19 57 19.215   -30 28 18.99  1.7438 2.4886 127.0 18.2 1.66 176
2019 05 24 18  19 57 11.522   -30 27 57.77  1.7430 2.4884 127.1 18.2 1.68 176
2019 05 24 19  19 57 03.818   -30 27 36.51  1.7422 2.4883 127.2 18.2 1.71 176
2019 05 24 20  19 56 56.105   -30 27 15.20  1.7413 2.4882 127.2 18.2 1.74 176
2019 05 24 21  19 56 48.382   -30 26 53.85  1.7405 2.4881 127.3 18.2 1.76 176
2019 05 24 22  19 56 40.649   -30 26 32.45  1.7396 2.4879 127.4 18.2 1.79 175
2019 05 24 23  19 56 32.906   -30 26 11.01  1.7388 2.4878 127.4 18.2 1.81 175
2019 05 25 00  19 56 25.153   -30 25 49.51  1.7380 2.4877 127.5 18.2 1.84 175
2019 05 25 01  19 56 17.390   -30 25 27.98  1.7371 2.4875 127.6 18.2 1.87 175
2019 05 25 02  19 56 09.617   -30 25 06.39  1.7363 2.4874 127.6 18.2 1.89 174
2019 05 25 03  19 56 01.835   -30 24 44.76  1.7355 2.4873 127.7 18.2 1.92 174
2019 05 25 04  19 55 54.042   -30 24 23.08  1.7346 2.4871 127.8 18.2 1.95 174
2019 05 25 05  19 55 46.240   -30 24 01.36  1.7338 2.4870 127.8 18.2 1.98 174
2019 05 25 06  19 55 38.427   -30 23 39.59  1.7330 2.4869 127.9 18.2 2.00 174
2019 05 25 07  19 55 30.605   -30 23 17.77  1.7321 2.4867 128.0 18.2 2.03 173
2019 05 25 08  19 55 22.773   -30 22 55.91  1.7313 2.4866 128.0 18.2 2.06 173
2019 05 25 09  19 55 14.931   -30 22 33.99  1.7305 2.4865 128.1 18.2 2.09 173
2019 05 25 10  19 55 07.078   -30 22 12.04  1.7296 2.4863 128.2 18.2 2.12 173
2019 05 25 11  19 54 59.216   -30 21 50.03  1.7288 2.4862 128.2 18.2 2.15 172
2019 05 25 12  19 54 51.344   -30 21 27.97  1.7280 2.4861 128.3 18.2 2.18 172
2019 05 25 13  19 54 43.462   -30 21 05.87  1.7272 2.4859 128.4 18.2 2.21 172
2019 05 25 14  19 54 35.571   -30 20 43.72  1.7263 2.4858 128.4 18.2 2.24 172
2019 05 25 15  19 54 27.669   -30 20 21.52  1.7255 2.4857 128.5 18.2 2.27 172
2019 05 25 16  19 54 19.757   -30 19 59.27  1.7247 2.4856 128.6 18.2 2.30 171
2019 05 25 17  19 54 11.835   -30 19 36.98  1.7239 2.4854 128.6 18.2 2.33 171